User: anonymous   Login
Location: Unspecified
(0.0000°N, 0.0000°E)
Time: 06:01:06
(UTC+01:00)
Language:

Cosmos 1953 Rocket - Orbit

View from above orbital plane
View from above orbital plane
View from above satellite
View from above satellite

Ground track
Ground track

The orbit data is extracted from the following two-line orbital elements,

1 19211U 88050B   17023.87323785  .00000083  00000-0  72529-5 0  9992
2 19211  82.5280 337.3845 0020633 230.5626 155.3960 14.82943093545402
Epoch (UTC): 23 January 2017 20:57:27
Eccentricity: 0.0020633
inclination: 82.5280°
perigee height: 605 km
apogee height: 634 km
right ascension of ascending node: 337.3845°
argument of perigee: 230.5626°
revolutions per day: 14.82943093
mean anomaly at epoch: 155.3960°
orbit number at epoch: 54540

The dashed part of the orbit path shows where the satellite is in the earth's shadow,  

DLR